Location: *
(42.0175°N, 9.4056°E)
Time: 20:09:00
(UTC+00:00)

COSMOS 2455 - Pass Details

Date: 25 August 2019
Orbit: 900 x 910 km, 67.1° (Epoch: 14 October)

Event Time Altitude Azimuth Distance (km) Brightness Sun altitude
Rises 23:41:43 0° 328° (NNW) 3,547 6.6 -37.2°
Reaches altitude 10° 23:44:15 10° 327° (NNW) 2,602 5.7 -37.2°
Enters shadow 23:46:58 28° 322° (NW) 1,636 4.4 -37.1°
